Location: Demre
(36.2444°N, 29.9850°E)
Time: 05:43:06
(UTC+00:00)

Cosmos 1842 Rocket - Pass Details

Date: 11 March 2026
Orbit: 598 x 626 km, 82.5° (Epoch: 21 April)

Event Time Altitude Azimuth Distance (km) Brightness Sun altitude
Rises 17:51:51 0° 353° (N) 2,859 7.2 -22.5°
Reaches altitude 10° 17:54:04 10° 354° (N) 1,949 6.3 -22.9°
Enters shadow 17:58:16 84° 26° (NNE) 607 3.4 -23.7°
